Regional Weather Roundup
Issued by NWS Portland, ME

Current Version | Previous Version | Text Only | Print | Product List | Glossary Off
Versions: 1 2 3 4 5 6 7 8 9 10 11 12 13 14 15 16 17 18 19 20 21 22 23 24 25 26 27 28 29 30 31 32 33 34 35 36 37 38 39 40 41 42 43 44 45 46 47 48 49 50
000 ASUS41 KGYX 221010 RWRGYX WEATHER ROUNDUP FOR MAINE AND NEW HAMPSHIRE NATIONAL WEATHER SERVICE GRAY ME 600 AM EDT SUN APR 22 2018 MEZ002-005-006-010-012-015-018-020-021-024-026-027-029-221100- MAINE CITY SKY/WX TMP DP RH WIND PRES REMARKS PORTLAND FAIR 33 24 69 W8 30.30R SANFORD FAIR 25 22 88 W6 30.30R BAR HARBOR FAIR 29 24 82 CALM 30.25R WISCASSET FAIR 28 24 85 CALM 30.30R ROCKLAND FAIR 33 24 69 W3 30.27R FRYEBURG FAIR 26 24 92 CALM 30.30R LEWISTONAUBURN FAIR 31 24 75 CALM 30.29R AUGUSTA FAIR 36 23 59 NW7 30.27R WATERVILLE FAIR 31 23 72 W5 30.25R BANGOR FAIR 27 22 81 CALM 30.25R GREENVILLE N/A 29 18 63 NW7 30.20R MILLINOCKET FAIR 31 19 61 W5 30.24R HOULTON FAIR 23 20 88 CALM 30.20R PRESQUE ISLE FAIR 22 20 92 CALM 30.22R FRENCHVILLE FAIR 30 15 53 NW9 30.20R CARIBOU FAIR 31 17 56 NW8 30.19R $$ NHZ002-005-008-009-011-012-014-221100- NEW HAMPSHIRE CITY SKY/WX TMP DP RH WIND PRES REMARKS PORTSMOUTH CLEAR 35 21 55 CALM 30.29S ROCHESTER FAIR 31 23 72 NW5 30.30R NASHUA FAIR 29 24 82 CALM 30.34R MANCHESTER FAIR 34 23 64 CALM 30.32R CONCORD FAIR 26 21 81 NE3 30.33R LACONIA FAIR 29 26 89 CALM 30.32R PLYMOUTH FAIR 26 24 91 CALM 30.32R BERLIN FAIR 21 18 88 CALM 30.29R WHITEFIELD FAIR 21 19 92 CALM 30.31R JAFFREY FAIR 27 24 89 S3 30.32R KEENE FAIR 23 21 92 CALM 30.36R LEBANON FAIR 24 18 77 CALM 30.34R MT WASHINGTON PTCLDY 14 10 85 NW53 N/A WCI -12 $$ VTZ005-007-008-221100- VERMONT CITY SKY/WX TMP DP RH WIND PRES REMARKS ST JOHNSBURY N/A 25 23 92 MISG 30.32R MONTPELIER FAIR 25 21 85 CALM 30.36R BURLINGTON FAIR 29 23 78 CALM 30.37R $$ MAZ007-012-024-CTZ003-RIZ002-NYZ038-NYZ072-221100- SOUTHERN NEW ENGLAND AND NY CITY SKY/WX TMP DP RH WIND PRES REMARKS BOSTON FAIR 43 21 41 W10 30.33R WORCESTER FAIR 35 17 47 W10 30.32R NANTUCKET FAIR 38 36 92 NW7 30.31R PROVIDENCE FAIR 37 25 61 W5 30.34S HARTFORD FAIR 35 22 58 CALM 30.36R ALBANY FAIR 31 20 63 CALM 30.38R NEW YORK CITY FAIR 47 28 47 NW3 30.38R $$ ANZ081-ANZ082-ANZ150-NHZ014-MEZ023>029-221100- COASTAL MARINE OBSERVATIONS STATION/POSITION TIME TEMP WIND PRES WAVE AIR SEA DIR/SP/G HT/PER (UTC) (F) (DEG/KT/KT) (MB) (FT/S) MOUNT DESERT ROC 1000 40 290/ 12/ 12 1024.4R MATINICUS ROCK 1000 40 320/ 15/ 16 1024.3R ISLE OF SHOALS 1000 40 300/ 12/ 14 1025.7R JEFFREYS LEDGE 0936 42 N/A 1/12 CASHES LEDGE BUO 0950 41 41 1024.9R 1/ 8 $$ .............KEY.............. WCI - WIND CHILL TC - TEMPERATURE IN CELSIUS VSB - VISIBILITY IN MILES HX - HEAT INDEX FAIR- INDICATES FEW OR NO CLOUDS BELOW 12,000 FT, WITH NO SIGNIFICANT WEATHER AND/OR OBSTRUCTIONS TO VISIBILITY.

USA.gov is the U.S. government's official web portal to all federal, state and local government web resources and services.